Torna al catalogo

STARLINK-34373

AttivoComunicazioniSSO
NORAD 64944·PAYLOAD·🇺🇸 United States

Lanciato Jul 26, 2025 da Vandenberg Space Force Base

Loading…

Prossimi Passaggi (prossime 24 ore)

TLE

AggiornatoSource: CelesTrak SupGP

Epoca: Sep 14, 2026, 22:40 UTC

1 64944C 25158N   26257.94493056  .00073250  00000+0  22744-2 0  2574
2 64944  97.2843 116.3744 0001631  92.9247  62.2151 15.33394427    11

Traccia STARLINK-34373 in tempo reale con AllMySat

Download on the App Store